Flag for Nicaragua Weather past 2 weeks in Managua, Nicaragua

Now
81 °F

Passing clouds.


Feels Like: 86 °F
Forecast: 71 / 89 °F
Wind: No wind

Location: Managua A. C. Sandino

Current Time: Oct 21, 2014 at 10:04:15 AM

Latest Report: Oct 21, 2014 at 9:00 AM


Visibility: 6 mi

Pressure: 29.83 "Hg

Humidity: 84%

Dew point: 75 °F

Location of ManaguaLocation

Historic Weather in Managua — Graph

°F

Managua temperature yesterday

Maximum temperature yesterday: 88 °F (at 2:00 PM)
Minimum temperature yesterday: 73 °F (at 4:00 AM)
Average temperature yesterday: 79 °F

Past Weeks' High & Low Weather Summary

 TemperatureHumidityPressure
High90 °F (Oct 6, 12:00 PM)100% (Oct 10, 5:00 AM)29.95 "Hg (Oct 10, 5:00 AM)
Low73 °F (Oct 8, 2:00 AM)59% (Oct 6, 11:00 AM)29.71 "Hg (Oct 7, 3:00 PM)
Average80 °F84%29.82 "Hg
* Reported Oct 6 9:00 AM — Oct 21 9:00 AM, Managua, Weather by CustomWeather, © 2014

Note: Actual official high and low records may vary slightly from our data, if they occured in-between our weather recording intervals... More about our weather records

Advertising

Managua weather history for previous 24 hours

 ConditionsComfort  
Time TempWeatherWind HumidityBarometerVisibility
9:00 AM
Oct 21
81 °FPassing clouds.No wind84%29.83 "Hg6 mi
8:00 AM79 °FScattered clouds.No wind84%29.83 "Hg6 mi
7:00 AM75 °FScattered clouds.No wind94%29.80 "HgN/A
6:00 AM73 °FScattered clouds.No wind89%29.80 "HgN/A
5:00 AM73 °FPassing clouds.No wind89%29.77 "Hg6 mi
4:00 AM73 °FPassing clouds.No wind89%29.77 "Hg6 mi
2:00 AM73 °FThunderstorms. Passing clouds.9 mph89%29.77 "Hg6 mi
1:00 AM73 °FThunderstorms. Passing clouds.5 mph89%29.80 "Hg6 mi
12:00 AM75 °FThunderstorms. Passing clouds.5 mph89%29.83 "Hg6 mi
11:00 PM
Oct 20
75 °FThundershowers. Passing clouds.9 mph89%29.83 "Hg6 mi
10:00 PM75 °FPassing clouds.5 mph89%29.83 "HgN/A
9:00 PM77 °FPassing clouds.No wind94%29.83 "HgN/A
8:00 PM79 °FPassing clouds.5 mph89%29.80 "HgN/A
7:00 PM79 °FPassing clouds.5 mph89%29.77 "HgN/A
6:00 PM81 °FPassing clouds.5 mph84%29.74 "HgN/A
5:00 PM82 °FScattered clouds.7 mph74%29.74 "HgN/A
4:00 PM84 °FScattered clouds.7 mph74%29.71 "HgN/A
3:00 PM86 °FScattered clouds.7 mph66%29.71 "HgN/A
2:00 PM88 °FScattered clouds.7 mph59%29.71 "HgN/A
1:00 PM86 °FScattered clouds.5 mph66%29.77 "HgN/A
12:00 PM86 °FScattered clouds.7 mph70%29.80 "HgN/A
11:00 AM84 °FScattered clouds.7 mph70%29.80 "HgN/A
10:00 AM84 °FPassing clouds.7 mph70%29.83 "HgN/A
Weather by CustomWeather, © 2014

See weather overviewHow to use our weather pages